Terminal Aerodrome Forecast
Issued by NWS Salt Lake City, UT

Home | Current Version | Previous Version | Text Only | Print | Product List | Glossary On
Versions: 1 2 3 4 5 6 7 8 9 10 11 12 13 14 15 16 17 18 19 20 21 22 23 24 25 26 27 28 29
000
FTUS45 KSLC 190306 AAA
TAFSLC
TAF AMD
KSLC 190306Z 1903/2006 30007KT P6SM FEW070 BKN150
     FM190500 17005KT P6SM FEW070 BKN150
     FM192000 31007KT P6SM VCSH SCT070 BKN110=

USA.gov is the U.S. government's official web portal to all federal, state and local government web resources and services.